Grenada Lake Weather Center

Moon Phase Calendar



Grenada Lake Water Level
Online Cameras

 


      

Current Conditions in Grenada
11/29/2020 1:41:28 AM

41°F
Feels Like 38
Clouds
Humidity
95%
Pressure
29.94"
Wind
2 mph (ESE)
Dew Point
40°F
UV Index
0/10 (Low)
Visibility
6 mi

Hourly Forecast

Date & Time Sun, Nov 29
1:00 AM
Sun, Nov 29
2:00 AM
Sun, Nov 29
3:00 AM
Sun, Nov 29
4:00 AM
Sun, Nov 29
5:00 AM
Sun, Nov 29
6:00 AM
Sun, Nov 29
7:00 AM
Sun, Nov 29
8:00 AM
Sun, Nov 29
9:00 AM
Sun, Nov 29
10:00 AM
Sun, Nov 29
11:00 AM
Sun, Nov 29
12:00 PM
Sun, Nov 29
1:00 PM
Sun, Nov 29
2:00 PM
Sun, Nov 29
3:00 PM
Sun, Nov 29
4:00 PM
Sun, Nov 29
5:00 PM
Sun, Nov 29
6:00 PM
Sun, Nov 29
7:00 PM
Sun, Nov 29
8:00 PM
Sun, Nov 29
9:00 PM
Sun, Nov 29
10:00 PM
Sun, Nov 29
11:00 PM
Mon, Nov 30
12:00 AM
Mon, Nov 30
1:00 AM
Mon, Nov 30
2:00 AM
Mon, Nov 30
3:00 AM
Mon, Nov 30
4:00 AM
Mon, Nov 30
5:00 AM
Mon, Nov 30
6:00 AM
Mon, Nov 30
7:00 AM
Mon, Nov 30
8:00 AM
Mon, Nov 30
9:00 AM
Mon, Nov 30
10:00 AM
Mon, Nov 30
11:00 AM
Mon, Nov 30
12:00 PM
Mon, Nov 30
1:00 PM
Mon, Nov 30
2:00 PM
Mon, Nov 30
3:00 PM
Mon, Nov 30
4:00 PM
Mon, Nov 30
5:00 PM
Mon, Nov 30
6:00 PM
Mon, Nov 30
7:00 PM
Mon, Nov 30
8:00 PM
Mon, Nov 30
9:00 PM
Mon, Nov 30
10:00 PM
Mon, Nov 30
11:00 PM
Tue, Dec 1
12:00 AM
Condition
Clouds

Clouds

Clouds

Clouds

Clouds

Clouds

Clouds

Clouds

Rain

Rain

Rain

Rain

Rain

Rain

Rain

Rain

Rain

Rain

Rain

Rain

Rain

Rain

Clouds

Clouds

Clouds

Clouds

Clouds

Clouds

Clouds

Clouds

Clouds

Clouds

Clouds

Clouds

Clouds

Clouds

Clear

Clear

Clear

Clear

Clear

Clear

Clear

Clear

Clear

Clear

Clear

Clear
Temperature 41°F44°F46°F47°F48°F48°F49°F49°F49°F49°F52°F50°F50°F50°F49°F46°F44°F44°F44°F44°F44°F44°F43°F43°F43°F43°F43°F43°F43°F41°F39°F38°F37°F38°F40°F41°F41°F41°F40°F39°F36°F35°F34°F34°F33°F33°F32°F31°F
Feels Like 36°F40°F41°F43°F43°F43°F43°F44°F45°F45°F50°F48°F47°F46°F44°F37°F36°F36°F38°F37°F36°F35°F34°F34°F35°F34°F35°F35°F33°F31°F29°F27°F26°F27°F29°F29°F29°F29°F29°F29°F28°F27°F27°F27°F26°F26°F25°F25°F
Cloudiness 100%100%100%100%100%100%100%100%100%100%100%100%100%100%100%100%100%100%100%100%100%100%100%100%100%96%96%94%95%96%100%100%90%74%63%53%0%0%0%0%0%0%0%0%0%0%0%0%
Visibility 6 mi6 mi6 mi6 mi6 mi6 mi6 mi6 mi6 mi6 mi6 mi6 mi6 mi6 mi2 mi6 mi2 mi6 mi5 mi3 mi6 mi6 mi6 mi6 mi6 mi6 mi6 mi6 mi6 mi6 mi6 mi6 mi6 mi6 mi6 mi6 mi6 mi6 mi6 mi6 mi6 mi6 mi6 mi6 mi6 mi6 mi6 mi6 mi
Precipitation 0%0%0%0%0%0%11%22%46%67%76%97%100%100%100%100%100%100%100%100%100%100%80%80%7%1%0%0%0%0%0%0%0%0%0%0%0%0%0%0%0%0%0%0%0%0%0%0%
Humidity 95%85%79%78%77%74%72%73%82%88%86%93%95%96%96%93%94%94%95%95%94%93%91%89%87%88%89%88%85%80%79%78%77%74%69%66%65%63%64%68%77%81%83%85%86%87%90%91%
Dew Point 40°F40°F40°F41°F41°F41°F40°F41°F44°F46°F48°F48°F49°F49°F48°F44°F43°F42°F43°F43°F42°F42°F41°F40°F40°F39°F40°F40°F38°F35°F33°F31°F29°F28°F27°F26°F25°F23°F22°F23°F24°F23°F23°F23°F24°F23°F23°F23°F
Pressure 29.94"30"30.06"30.06"30.06"30.03"30.03"30.03"30.03"30.03"30"29.97"29.94"29.91"29.88"29.88"29.91"29.91"29.91"29.91"29.91"29.94"29.94"29.97"29.97"29.97"29.97"30"30"30.03"30.09"30.09"30.12"30.15"30.15"30.15"30.12"30.12"30.12"30.12"30.15"30.15"30.18"30.18"30.18"30.18"30.18"30.18"
Wind Speed 5.1 mph3.7 mph5.7 mph3.2 mph5.1 mph6.1 mph6.1 mph5.4 mph4.9 mph5.2 mph2.7 mph2.9 mph4.8 mph5.2 mph7.6 mph13 mph10.7 mph9.5 mph7.2 mph9.4 mph11 mph12 mph11.2 mph11.7 mph10.6 mph10.8 mph10.5 mph10.4 mph12.2 mph12.6 mph12.3 mph13.1 mph13.6 mph13.4 mph13.1 mph14 mph14 mph13.9 mph13 mph12 mph7.3 mph6.6 mph6 mph5.8 mph5.9 mph5.8 mph5.2 mph4.5 mph
Wind
Direction
64°
ENE
75°
ENE
97°
E
71°
ENE
67°
ENE
82°
E
93°
E
110°
ESE
135°
SE
100°
E
118°
ESE

N

N
29°
NNE
327°
NNW
345°
NNW
354°
N
352°
N
351°
N
324°
NW
321°
NW
310°
NW
311°
NW
328°
NNW
325°
NW
305°
NW
310°
NW
323°
NW
324°
NW
323°
NW
324°
NW
322°
NW
325°
NW
322°
NW
319°
NW
314°
NW
313°
NW
311°
NW
309°
NW
308°
NW
303°
WNW
299°
WNW
289°
WNW
283°
WNW
285°
WNW
295°
WNW
305°
NW
310°
NW

Daily Forecast

Date High Low Precip. Humidity
Today
Nov 29

Rain
52 °F
41 °F
100%
86%
Monday
Nov 30

Clouds
43 °F
33 °F
80%
69%
Tuesday
Dec 1

Clear
49 °F
29 °F
0%
49%
Wednesday
Dec 2

Rain
55 °F
34 °F
100%
60%
Thursday
Dec 3

Rain
51 °F
43 °F
100%
85%
Friday
Dec 4

Clear
46 °F
36 °F
0%
57%
Saturday
Dec 5

Clear
47 °F
32 °F
0%
56%
Sunday
Dec 6

Clear
54 °F
35 °F
0%
54%
Monday
Dec 7

Clouds
59 °F
40 °F
0%
57%
Tuesday
Dec 8

Clear
59 °F
43 °F
0%
58%
Wednesday
Dec 9

Clear
60 °F
41 °F
0%
51%
Thursday
Dec 10

Clouds
56 °F
43 °F
0%
42%
Friday
Dec 11

Clouds
50 °F
38 °F
0%
48%
Saturday
Dec 12

Rain
42 °F
35 °F
100%
96%
Sunday
Dec 13

Rain
42 °F
33 °F
100%
81%
Monday
Dec 14

Clear
45 °F
31 °F
0%
61%


Temperature 8-14 Day Outlook



Precipitation 8-14 Day Outlook




Quick Links
Grenada Lake News
Grenada Lake Photos
Grenada Lake Videos




About Us
Contact Us
Site Map
Search Site
Advertise With Us
   
Grenada.USLakes.info
THE GRENADA LAKE WEBSITE

Copyright 2020, Lakes Online
Privacy    |    Legal